sat.trackr.live / text

‹ back to catalog

STARLINK-4709

NORAD 53778 · 2022-111F

PAYLOAD ACTIVE UNKNOWN

§ Identity

Operator
Country
US
Launch date
2022-09-11
Launch site
AFETR
Launch vehicle
Mass (kg)
RCS (m²)

Purposes: comms

External: N2YO · Heavens-Above · Gunter

§ Orbital elements

Epoch: 2026-05-25T03:44:11.881248Z

Period
95.44 min
Inclination
53.2137°
Eccentricity
0.0001396
Mean motion
15.08841066 rev/d
Perigee alt
538.8 km
Apogee alt
540.7 km
Semi-major
6,917.9 km
B*
5.4668e-5
RAAN
295.5789°
Arg perigee
84.0038°
Mean anomaly
276.1113°
Rev number
20,517

§ Raw data

STARLINK-47091 53778U 22111F   26145.15569307  .00000582  00000+0  54668-4 0  99982 53778  53.2137 295.5789 0001396  84.0038 276.1113 15.08841066205175

JSON: /api/v1/satellites/53778 · /tle

For live sub-satellite position, see the globe view (requires WebGL).

§ Visibility from observer

Set your observer location to see the next 7 days of passes ≥ 10°. The values pass through the URL so the page stays shareable.

No JS? Fill the form by hand. The geolocation button needs JavaScript.